CAPE
0 0 0 0 164 3 0 0 0 0 0 140 169 119 28 159 107 599 658 564 486 1410 1035 391 1032 843 565 635 715 821 495 204 30 0 0 0 0 0 0 0 0 0 0 0 0 0 0 0 0
0 0 0 1 0 201 139 0 0 0 584 338 212 392 452 804 815 791 744 704 991 989 319 334 1182 904 734 784 862 426 67 0 0 0 0 0 0 0 0 0 0 0 0 0 0 0 0 0 0
0 0 0 19 43 8 223 0 0 67 765 643 730 924 849 1196 817 722 829 820 1103 601 341 668 1281 971 918 998 455 51 0 0 0 0 0 0 0 0 0 0 0 0 0 0 0 1 1 1 0
0 0 0 1 3 13 76 2 0 688 835 1039 1052 1181 1207 1085 739 723 992 1086 789 508 472 953 1307 1205 1097 599 117 0 0 0 0 0 0 0 0 0 0 0 0 0 0 0 0 1 0 0 0
0 0 0 0 0 32 0 0 0 488 1005 1194 1080 1215 1061 994 979 932 974 974 611 519 547 807 1462 1253 767 199 0 0 0 0 0 0 0 0 0 0 0 0 0 0 0 0 0 0 0 0 0
0 0 0 0 0 20 0 0 3 425 1198 1246 1209 1239 1273 1192 1112 1167 1050 822 564 562 663 924 1004 1042 337 0 0 0 0 0 0 0 0 0 0 0 0 0 0 0 0 0 0 0 0 0 0
1 0 0 0 0 4 10 0 141 290 1247 1383 1366 1221 1188 1142 1174 1254 1020 731 668 763 1020 1128 992 231 1 0 0 0 0 0 0 0 0 0 0 0 0 0 0 0 0 0 0 0 0 0 0
11 7 0 0 0 0 1 0 0 505 988 1257 1317 1257 1291 1234 1096 1249 884 823 765 1087 1240 1084 576 1 0 0 0 0 0 0 0 0 0 0 0 0 0 0 0 0 0 0 0 0 0 0 0
31 0 0 0 4 0 0 0 0 123 1091 1404 1242 1223 1318 1186 1039 996 664 630 749 829 1014 727 20 0 0 0 0 0 0 0 0 0 0 0 0 0 0 0 0 0 0 0 0 0 0 0 0
61 3 0 2 28 10 0 0 18 323 938 1426 1396 1462 1507 1133 1125 730 548 458 508 728 745 207 0 0 0 0 0 0 0 0 0 0 0 0 0 0 0 0 0 0 0 0 0 0 0 0 0
80 35 4 10 14 0 0 0 0 205 623 857 1573 1313 1449 1243 917 539 449 621 606 434 375 0 0 0 0 0 0 0 0 0 0 0 0 0 0 0 0 0 0 0 0 0 0 0 0 0 0
52 41 1 51 0 0 0 0 0 52 293 384 1344 1445 1193 1141 665 561 497 582 733 287 290 0 0 0 0 0 0 0 0 0 0 0 0 0 0 0 0 0 0 0 0 0 0 0 0 0 0
107 44 18 23 5 0 0 0 0 0 251 461 1407 1372 1567 1196 641 518 399 384 362 513 99 0 0 0 0 0 0 0 0 0 0 0 0 0 0 0 0 0 0 0 0 0 0 0 0 0 0
104 30 21 15 7 1 0 0 0 0 5 876 1673 1300 1394 1042 771 623 444 308 343 635 4 0 0 0 0 0 0 0 0 0 0 0 0 0 0 0 0 0 0 0 0 0 0 0 0 0 0
102 23 46 0 0 0 0 0 0 0 225 1129 1344 1096 1454 1162 714 1101 1074 1006 909 357 0 0 0 0 0 0 0 0 0 0 0 0 0 0 0 0 0 0 0 0 0 0 0 0 0 0 0
106 67 89 6 0 0 0 0 0 0 284 940 1098 1033 1298 919 915 1215 941 851 309 41 0 0 0 0 0 0 0 0 0 0 0 0 0 0 0 0 0 0 0 0 0 0 0 0 0 0 0
84 71 47 1 0 0 0 0 0 0 310 730 1169 1068 794 666 1028 779 304 11 0 0 0 0 0 0 0 0 0 0 0 0 0 0 0 0 0 0 0 0 0 0 0 0 0 0 0 0 0
26 12 5 12 0 0 0 0 0 0 181 613 1007 1106 415 410 548 416 182 1 0 0 0 0 0 0 0 0 0 0 0 0 0 0 0 0 0 0 0 0 0 0 0 0 0 0 0 0 0
11 0 2 0 0 0 0 0 0 0 82 381 807 728 430 596 684 515 155 4 0 1 0 0 0 0 0 0 0 0 0 0 0 0 0 0 0 0 0 0 0 0 0 0 0 0 0 0 0
15 7 58 1 0 0 0 0 0 0 129 290 535 431 589 527 695 579 363 60 1 0 0 0 0 0 0 0 0 0 0 0 0 0 0 0 0 0 0 0 0 0 0 0 0 0 0 0 0
11 1 24 5 0 0 0 0 0 0 98 125 341 190 178 228 201 313 584 469 120 1 0 0 0 0 0 0 0 0 0 0 0 0 0 0 0 0 0 0 0 0 0 0 0 0 0 0 0
15 3 18 0 73 8 0 2 4 14 11 130 224 159 0 1 11 125 144 199 77 2 0 0 0 0 0 0 0 0 0 0 0 0 0 0 0 0 0 0 0 0 0 0 0 0 0 0 0
0 0 0 0 95 102 75 79 7 0 10 0 180 127 3 0 3 38 13 0 0 0 0 0 0 0 0 0 0 0 0 0 0 0 0 0 0 0 0 0 0 0 0 0 0 0 0 0 0
0 0 2 0 111 172 13 6 72 18 34 22 6 106 175 65 1 0 0 0 0 0 0 0 0 0 0 0 0 0 0 0 0 0 0 0 0 0 0 0 0 0 0 0 0 0 0 0 0
0 0 144 163 231 86 0 40 114 0 0 1 0 0 0 34 0 0 0 0 0 0 0 0 0 0 0 0 0 0 0 0 0 0 0 0 0 0 0 0 0 0 0 0 0 0 0 0 0
0 2 101 42 84 69 0 99 123 0 0 0 0 0 0 0 0 0 0 0 0 0 0 0 0 0 0 0 0 0 0 0 0 0 0 0 0 0 0 0 0 0 0 0 0 0 0 0 0
0 1 0 0 0 0 4 0 0 0 0 0 0 0 0 0 0 0 0 0 0 0 0 0 0 0 0 0 0 0 0 0 0 0 0 0 0 0 0 0 0 0 0 0 0 0 0 0 0
0 0 7 0 21 0 0 0 419 0 0 0 0 0 0 0 0 0 0 0 0 0 0 0 0 0 0 0 0 0 0 0 0 0 0 0 0 0 0 0 0 0 0 0 0 0 0 0 0
0 0 0 0 0 2 0 1 0 0 0 0 0 0 0 0 0 0 0 0 0 0 0 0 0 0 0 0 0 0 0 0 0 0 0 0 0 0 0 0 0 0 0 0 0 0 0 0 0
0 0 0 0 0 0 0 0 0 0 0 0 0 0 0 0 0 0 0 0 0 0 0 0 0 0 0 0 0 0 0 0 0 0 0 0 0 0 0 0 0 0 0 0 0 0 0 0 0
CIN
-0 -0 -0 -0 -23 -10 -0 -0 -0 -0 -0 -194 -154 -174 -198 -154 -180 -42 -146 -119 -125 -0 -2 -69 -0 -0 -0 -1 -0 -0 -29 -111 -194 -0 -0 -0 -0 -0 -0 -0 -0 -0 -0 -0 -0 -0 -0 -0 -0
-0 -0 -0 -0 -0 -1 -26 -0 -0 -0 -120 -196 -194 -158 -115 -91 -169 -162 -137 -94 -19 -9 -128 -108 -0 -0 -0 -0 -0 -39 -239 -0 -0 -0 -0 -0 -0 -0 -0 -0 -0 -0 -0 -0 -0 -0 -0 -0 -0
-0 -0 -0 -4 -56 -52 -11 -0 -0 -122 -122 -127 -120 -143 -123 -130 -182 -164 -114 -89 -7 -60 -131 -9 -0 -0 -0 -0 -37 -275 -0 -0 -0 -0 -0 -0 -0 -0 -0 -0 -0 -0 -0 -0 -0 -0 -0 -0 -0
-0 -0 -0 -0 -4 -103 -62 -39 -0 -87 -128 -116 -109 -73 -162 -169 -223 -192 -95 -36 -58 -109 -93 -0 -0 -0 -0 -14 -227 -0 -0 -0 -0 -0 -0 -0 -0 -0 -0 -0 -0 -0 -0 -0 -0 -0 -0 -0 -0
-0 -0 -0 -0 -0 -0 -0 -0 -0 -77 -75 -86 -124 -130 -173 -178 -173 -147 -94 -57 -126 -126 -86 -2 -0 -0 -2 -186 -0 -0 -0 -0 -0 -0 -0 -0 -0 -0 -0 -0 -0 -0 -0 -0 -0 -0 -0 -0 -0
-0 -0 -0 -0 -0 -0 -0 -0 -75 -55 -49 -91 -99 -126 -127 -148 -148 -105 -76 -96 -141 -128 -65 -6 -5 -0 -109 -0 -0 -0 -0 -0 -0 -0 -0 -0 -0 -0 -0 -0 -0 -0 -0 -0 -0 -0 -0 -0 -0
-0 -0 -0 -0 -0 -0 -93 -0 -74 -56 -36 -57 -86 -98 -146 -143 -124 -89 -86 -120 -117 -63 -2 -0 -3 -209 -17 -0 -0 -0 -0 -0 -0 -0 -0 -0 -0 -0 -0 -0 -0 -0 -0 -0 -0 -0 -0 -0 -0
-0 -0 -0 -0 -0 -0 -0 -0 -0 -47 -17 -100 -83 -64 -123 -141 -131 -87 -117 -95 -92 -12 -0 -3 -79 -196 -0 -0 -0 -0 -0 -0 -0 -0 -0 -0 -0 -0 -0 -0 -0 -0 -0 -0 -0 -0 -0 -0 -0
-0 -0 -0 -0 -0 -0 -0 -0 -0 -158 -50 -58 -92 -114 -134 -151 -146 -137 -172 -148 -95 -55 -18 -56 -179 -0 -0 -0 -0 -0 -0 -0 -0 -0 -0 -0 -0 -0 -0 -0 -0 -0 -0 -0 -0 -0 -0 -0 -0
-0 -0 -0 -0 -0 -0 -0 -0 -66 -51 -36 -34 -75 -99 -101 -151 -141 -190 -209 -214 -159 -85 -66 -235 -0 -0 -0 -0 -0 -0 -0 -0 -0 -0 -0 -0 -0 -0 -0 -0 -0 -0 -0 -0 -0 -0 -0 -0 -0
-0 -0 -0 -0 -7 -0 -0 -0 -0 -33 -19 -23 -41 -114 -94 -121 -168 -207 -218 -155 -132 -157 -155 -1 -0 -0 -0 -0 -0 -0 -0 -0 -0 -0 -0 -0 -0 -0 -0 -0 -0 -0 -0 -0 -0 -0 -0 -0 -0
-1 -0 -0 -2 -1 -0 -0 -0 -0 -69 -8 -101 -46 -108 -115 -112 -202 -192 -196 -158 -99 -193 -174 -0 -0 -0 -0 -0 -0 -0 -0 -0 -0 -0 -0 -0 -0 -0 -0 -0 -0 -0 -0 -0 -0 -0 -0 -0 -0
-0 -0 -2 -10 -14 -0 -0 -0 -0 -0 -49 -102 -44 -80 -54 -64 -128 -119 -144 -145 -147 -97 -281 -0 -0 -0 -0 -0 -0 -0 -0 -0 -0 -0 -0 -0 -0 -0 -0 -0 -0 -0 -0 -0 -0 -0 -0 -0 -0
-0 -5 -1 -6 -20 -11 -0 -0 -0 -0 -80 -47 -18 -66 -65 -74 -91 -50 -97 -149 -133 -46 -81 -0 -0 -0 -0 -0 -0 -0 -0 -0 -0 -0 -0 -0 -0 -0 -0 -0 -0 -0 -0 -0 -0 -0 -0 -0 -0
-1 -1 -1 -3 -0 -0 -0 -0 -0 -0 -50 -18 -18 -33 -36 -75 -87 -43 -6 -1 -1 -47 -0 -0 -0 -0 -0 -0 -0 -0 -0 -0 -0 -0 -0 -0 -0 -0 -0 -0 -0 -0 -0 -0 -0 -0 -0 -0 -0
-0 -2 -0 -4 -0 -0 -0 -0 -0 -0 -28 -21 -18 -36 -33 -66 -82 -4 -15 -5 -59 -112 -0 -0 -0 -0 -0 -0 -0 -0 -0 -0 -0 -0 -0 -0 -0 -0 -0 -0 -0 -0 -0 -0 -0 -0 -0 -0 -0
-0 -0 -1 -8 -0 -0 -0 -0 -0 -0 -25 -1 -10 -39 -51 -70 -15 -21 -111 -124 -0 -0 -0 -0 -0 -0 -0 -0 -0 -0 -0 -0 -0 -0 -0 -0 -0 -0 -0 -0 -0 -0 -0 -0 -0 -0 -0 -0 -0
-0 -1 -14 -13 -0 -0 -0 -0 -0 -0 -52 -6 -5 -15 -101 -98 -82 -89 -130 -0 -0 -0 -0 -0 -0 -0 -0 -0 -0 -0 -0 -0 -0 -0 -0 -0 -0 -0 -0 -0 -0 -0 -0 -0 -0 -0 -0 -0 -0
-0 -0 -1 -0 -0 -0 -0 -0 -0 -0 -86 -42 -0 -25 -62 -35 -22 -19 -98 -178 -0 -0 -0 -0 -0 -0 -0 -0 -0 -0 -0 -0 -0 -0 -0 -0 -0 -0 -0 -0 -0 -0 -0 -0 -0 -0 -0 -0 -0
-0 -0 -6 -2 -0 -0 -0 -0 -0 -0 -46 -44 -2 -39 -22 -4 -0 -2 -5 -62 -0 -0 -0 -0 -0 -0 -0 -0 -0 -0 -0 -0 -0 -0 -0 -0 -0 -0 -0 -0 -0 -0 -0 -0 -0 -0 -0 -0 -0
-0 -0 -0 -2 -0 -0 -0 -0 -0 -0 -69 -80 -18 -68 -82 -17 -1 -1 -0 -0 -71 -0 -0 -0 -0 -0 -0 -0 -0 -0 -0 -0 -0 -0 -0 -0 -0 -0 -0 -0 -0 -0 -0 -0 -0 -0 -0 -0 -0
-1 -14 -15 -0 -1 -0 -0 -0 -0 -15 -61 -55 -30 -52 -25 -137 -23 -40 -43 -43 -108 -104 -0 -0 -0 -0 -0 -0 -0 -0 -0 -0 -0 -0 -0 -0 -0 -0 -0 -0 -0 -0 -0 -0 -0 -0 -0 -0 -0
-0 -0 -0 -0 -6 -7 -3 -1 -0 -0 -67 -1 -27 -80 -127 -2 -120 -4 -42 -0 -0 -0 -0 -0 -0 -0 -0 -0 -0 -0 -0 -0 -0 -0 -0 -0 -0 -0 -0 -0 -0 -0 -0 -0 -0 -0 -0 -0 -0
-0 -0 -10 -12 -18 -0 -13 -2 -0 -21 -4 -28 -70 -75 -32 -127 -43 -0 -0 -0 -0 -0 -0 -0 -0 -0 -0 -0 -0 -0 -0 -0 -0 -0 -0 -0 -0 -0 -0 -0 -0 -0 -0 -0 -0 -0 -0 -0 -0
-0 -0 -0 -0 -1 -1 -0 -24 -3 -0 -0 -16 -0 -0 -50 -120 -0 -0 -0 -0 -0 -0 -0 -0 -0 -0 -0 -0 -0 -0 -0 -0 -0 -0 -0 -0 -0 -0 -0 -0 -0 -0 -0 -0 -0 -0 -0 -0 -0
-0 -5 -9 -3 -4 -14 -0 -2 -3 -0 -0 -0 -0 -0 -0 -0 -0 -0 -0 -0 -0 -0 -0 -0 -0 -0 -0 -0 -0 -0 -0 -0 -0 -0 -0 -0 -0 -0 -0 -0 -0 -0 -0 -0 -0 -0 -0 -0 -0
-0 -8 -0 -0 -0 -6 -15 -4 -0 -0 -0 -0 -0 -0 -0 -0 -0 -0 -0 -0 -0 -0 -0 -0 -0 -0 -0 -0 -0 -0 -0 -0 -0 -0 -0 -0 -0 -0 -0 -0 -0 -0 -0 -0 -0 -0 -0 -0 -0
-0 -0 -14 -2 -3 -0 -0 -0 -14 -0 -0 -0 -0 -0 -0 -0 -0 -0 -0 -0 -0 -0 -0 -0 -0 -0 -0 -0 -0 -0 -0 -0 -0 -0 -0 -0 -0 -0 -0 -0 -0 -0 -0 -0 -0 -0 -0 -0 -0
-0 -0 -0 -0 -0 -3 -0 -39 -0 -0 -0 -0 -0 -0 -0 -0 -0 -0 -0 -0 -0 -0 -0 -0 -0 -0 -0 -0 -0 -0 -0 -0 -0 -0 -0 -0 -0 -0 -0 -0 -0 -0 -0 -0 -0 -0 -0 -0 -0
-0 -0 -0 -0 -0 -0 -0 -90 -0 -0 -0 -0 -0 -0 -0 -0 -0 -0 -0 -0 -0 -0 -0 -0 -0 -0 -0 -0 -0 -0 -0 -0 -0 -0 -0 -0 -0 -0 -0 -0 -0 -0 -0 -0 -0 -0 -0 -0 -0
Wind_Speed
8 7 4 4 7 6 14 8 3 6 6 1 13 7 8 3 2 2 8 8 19 17 17 16 14 14 14 12 11 10 13 12 12 12 13 13 13 13 12 12 12 11 11 11 11 11 11 11 11
5 5 4 3 10 13 13 12 10 5 3 7 10 8 6 5 5 9 12 15 19 16 15 16 15 15 13 12 12 13 13 12 12 12 12 12 12 12 12 13 13 12 12 11 11 10 10 11 11
5 5 6 6 11 18 13 11 10 4 10 9 7 2 2 6 8 14 15 19 18 15 14 15 14 14 13 12 14 14 13 12 11 11 11 11 12 11 12 12 12 11 11 11 11 11 11 11 11
5 5 5 13 20 15 16 6 13 11 5 5 4 7 6 4 13 9 20 19 17 15 14 14 14 14 13 15 14 13 12 11 11 11 10 11 11 11 11 11 11 11 11 11 11 11 11 11 10
4 4 12 17 22 14 13 4 11 12 8 8 5 7 6 10 9 17 19 17 17 15 15 14 13 14 16 15 14 13 12 12 11 11 10 11 11 11 12 11 11 11 11 11 11 11 11 11 10
6 6 12 21 22 16 9 7 8 12 8 9 6 10 7 7 14 14 16 16 15 15 14 14 13 15 15 14 13 13 12 12 12 12 12 12 12 12 11 11 11 11 11 11 12 12 12 12 11
10 9 18 16 18 19 13 10 10 13 10 9 11 9 5 9 14 14 16 16 15 15 13 13 14 13 13 13 12 13 12 12 12 12 13 12 12 11 11 12 11 11 11 11 12 12 12 12 10
7 6 17 12 17 20 13 9 3 11 10 6 5 7 8 12 14 13 15 15 15 13 12 13 12 11 11 11 12 12 12 12 12 11 11 10 11 9 10 8 10 11 11 11 11 12 12 12 10
4 8 13 17 12 18 6 9 4 2 8 5 7 3 11 20 15 14 14 14 12 10 12 11 11 10 10 10 10 12 11 10 10 10 6 5 6 7 8 9 9 11 10 10 10 11 11 11 3
10 11 11 8 6 11 5 8 6 8 9 7 8 5 19 19 18 16 14 14 12 11 11 11 10 10 10 7 8 8 6 5 5 6 6 5 6 7 5 5 7 7 7 5 7 8 8 7 7
9 10 9 6 5 4 9 6 1 8 10 9 13 14 18 19 18 16 15 13 13 12 10 11 10 9 9 7 6 4 3 4 4 6 5 6 4 3 3 3 4 5 5 5 6 7 6 9 7
6 10 11 2 2 4 4 8 6 6 3 1 7 20 20 21 18 18 15 15 15 11 13 11 10 9 8 6 5 5 4 4 4 4 5 4 3 3 4 4 5 5 5 7 7 5 8 9 9
10 4 12 10 3 7 6 7 12 7 7 2 10 19 19 19 18 16 16 15 13 14 13 11 10 8 7 6 5 5 5 4 5 4 4 3 3 4 3 4 5 5 5 5 6 7 7 8 8
7 7 9 14 9 6 6 6 3 13 4 5 15 19 20 21 20 13 12 15 15 14 13 12 11 9 8 6 6 6 5 5 4 4 4 4 3 3 3 4 4 5 5 5 5 6 6 7 6
5 7 12 15 11 7 4 10 10 8 7 10 14 17 17 21 18 21 18 17 17 13 12 11 10 9 8 8 5 5 5 4 4 4 4 4 3 3 4 4 4 4 4 6 5 6 5 6 6
5 7 11 9 15 8 4 12 10 7 9 12 14 16 16 16 17 17 18 16 11 14 13 12 10 10 8 7 5 5 5 4 4 3 3 3 3 3 3 3 4 4 4 4 4 5 6 6 6
5 5 10 3 12 8 11 7 5 4 8 12 15 16 15 13 15 16 14 12 8 9 10 7 10 11 8 7 4 5 5 3 3 3 3 3 2 1 3 3 3 4 3 4 5 5 5 5 6
2 5 5 10 6 17 11 13 6 2 6 10 15 12 13 13 13 14 14 12 13 6 6 5 7 9 9 6 5 4 4 3 3 3 3 3 1 1 2 2 3 3 3 3 4 6 5 4 6
7 8 6 7 6 11 18 12 9 3 5 8 12 12 8 10 11 12 13 14 13 9 8 8 6 8 7 6 5 4 4 4 3 3 3 3 2 1 1 2 2 3 4 4 5 5 6 5 7
6 4 9 6 5 10 14 17 10 5 5 6 11 10 12 9 10 14 10 13 15 15 10 10 9 9 7 5 3 1 4 2 3 3 4 4 2 1 2 2 3 4 4 5 5 6 5 4 5
7 4 7 3 6 4 11 14 14 3 4 4 5 9 11 6 7 8 11 15 16 14 13 11 10 8 7 5 5 4 4 3 3 4 3 3 2 2 2 4 4 4 4 4 5 5 6 6 4
5 9 11 7 8 8 7 8 14 9 7 7 8 13 9 10 2 6 9 7 6 8 9 10 8 7 6 6 5 5 3 4 2 3 2 3 3 4 4 4 4 4 4 5 5 4 5 5 6
4 5 7 6 4 4 8 5 12 6 9 11 11 10 10 7 9 3 8 9 8 7 7 7 7 5 7 6 4 3 3 3 3 3 4 4 3 4 4 5 5 4 4 5 5 6 5 4 5
6 4 4 4 4 5 7 5 7 8 12 12 12 11 14 14 7 8 8 6 7 5 5 7 8 7 6 5 5 5 5 5 4 4 3 3 2 2 5 4 5 4 4 5 4 5 6 6 6
5 4 2 3 3 1 2 4 2 6 3 3 11 11 13 13 15 14 13 11 9 8 8 7 9 8 7 7 6 5 5 5 5 5 3 3 2 3 4 5 5 5 5 5 5 5 6 6 6
6 4 3 1 3 3 1 7 4 4 2 0 3 4 6 9 9 10 9 9 7 9 9 9 9 10 8 7 6 6 6 4 4 5 3 3 3 3 5 5 5 5 6 5 5 5 5 6 6
4 5 3 3 1 3 3 4 5 2 5 3 4 8 8 9 9 9 7 7 8 9 8 9 10 9 8 8 7 7 6 6 6 5 4 3 3 3 5 5 5 6 6 6 7 5 7 6 7
4 3 3 2 2 3 4 3 2 4 5 5 8 11 11 11 12 11 9 10 9 9 8 9 9 10 9 8 8 7 7 7 5 4 5 4 4 4 5 5 6 6 6 6 7 6 7 8 7
4 4 3 2 3 4 1 3 1 2 2 6 9 11 12 13 12 11 10 10 9 8 9 9 9 10 9 8 8 8 7 6 6 5 4 4 4 5 5 6 6 7 8 8 8 9 9 10 10
2 3 4 4 3 1 3 3 1 1 2 5 9 10 11 11 11 11 11 11 9 9 9 9 9 9 8 8 8 8 7 6 5 5 4 4 4 4 5 6 8 8 9 10 10 11 11 12 13
Wind_Direction
276 276 283 235 219 230 232 224 250 210 188 174 153 176 183 28 173 33 150 135 137 136 136 142 136 134 130 124 114 100 85 78 74 72 70 67 66 61 57 52 46 39 34 27 22 19 19 16 14
271 260 230 240 238 208 218 221 211 206 118 150 140 135 170 108 67 117 136 148 140 137 142 140 137 134 131 124 110 95 88 84 79 73 70 68 65 63 56 51 45 41 38 36 30 26 23 19 13
225 257 216 215 226 225 221 183 223 146 147 166 144 5 111 110 119 143 124 145 137 138 141 127 137 135 133 120 105 98 92 86 82 78 75 73 67 60 58 51 43 37 35 33 28 24 22 20 13
191 194 229 231 221 213 217 199 198 158 168 178 222 133 103 346 141 144 143 146 142 139 137 136 138 138 124 110 106 101 97 91 87 84 80 73 64 62 54 54 45 43 38 30 26 22 21 16 11
216 231 227 226 226 208 224 251 188 182 159 163 195 140 100 124 118 141 145 149 141 142 138 146 143 130 115 111 108 105 99 92 87 85 83 75 68 63 59 54 48 40 36 29 24 22 15 10 6
202 252 219 222 213 205 223 205 195 186 169 147 145 134 128 120 140 148 149 145 144 142 145 139 127 114 114 112 109 106 97 93 89 87 84 78 71 66 61 56 47 40 37 32 26 19 13 7 4
242 226 228 237 209 211 208 189 204 190 171 171 146 136 108 151 145 151 150 146 146 145 149 140 132 114 102 102 102 100 94 91 89 89 86 82 75 71 66 57 44 44 39 34 24 17 13 7 4
230 260 225 221 221 213 190 195 201 198 174 106 174 168 169 160 146 143 147 151 150 148 146 139 132 129 124 117 96 96 95 92 92 88 89 94 94 81 70 57 47 46 40 30 22 16 12 4 5
220 230 227 208 225 209 172 210 164 139 163 180 155 133 139 144 147 142 150 151 148 155 146 138 134 129 126 120 111 108 100 101 111 106 92 128 80 75 72 56 47 44 33 22 15 10 7 350 27
211 222 224 246 210 233 152 234 187 193 173 175 162 112 135 149 151 151 159 158 157 143 148 143 139 138 131 124 124 109 106 87 95 101 98 90 78 66 66 71 51 50 13 12 1 5 358 355 2
204 229 197 214 265 291 263 240 251 229 204 190 185 153 152 155 153 158 161 165 154 150 153 150 144 145 138 135 130 122 115 114 100 94 98 92 89 80 56 46 34 24 5 12 4 6 14 6 5
204 224 220 192 1 302 260 295 241 240 219 345 180 164 157 158 162 164 167 162 159 160 158 152 147 148 139 136 129 127 127 121 118 107 105 107 94 72 49 38 30 24 11 6 8 1 4 4 8
222 178 216 220 274 312 302 255 250 238 222 230 168 164 162 160 163 170 170 167 160 167 162 157 152 150 142 137 134 128 122 126 121 119 104 91 84 63 42 37 33 22 4 7 1 2 2 4 3
195 244 255 221 241 265 282 245 274 229 205 183 170 173 166 169 166 165 166 169 173 171 167 159 159 152 143 143 149 130 128 133 133 125 113 96 71 57 40 38 27 21 9 360 355 1 0 2 6
174 167 256 224 218 257 291 243 224 248 202 184 182 178 169 176 170 175 173 174 176 168 161 167 152 147 147 143 149 135 132 151 141 131 131 110 79 50 37 32 22 20 8 350 353 5 360 2 9
188 213 203 201 204 225 243 241 209 212 205 194 182 179 181 182 179 181 173 170 162 160 170 167 150 152 153 146 157 145 143 148 138 136 137 118 92 24 21 21 29 9 357 355 360 3 350 4 10
187 223 216 223 211 211 211 230 193 226 226 205 197 183 178 175 173 177 171 150 121 158 155 153 159 147 150 146 146 133 132 146 139 149 143 133 136 40 350 8 14 354 349 2 358 360 353 356 359
127 254 218 230 173 217 209 237 249 269 239 229 193 172 182 166 166 172 165 152 132 153 135 142 160 152 149 149 150 149 150 146 155 153 147 139 127 22 334 336 341 337 333 359 356 349 354 346 345
139 213 276 270 213 222 217 224 245 318 248 243 171 155 158 154 154 164 148 166 156 167 167 164 158 163 162 158 165 179 174 155 165 151 133 116 109 100 315 329 329 336 337 351 347 338 342 346 349
211 230 272 273 225 217 205 222 246 272 244 252 176 137 113 126 159 147 152 183 176 163 174 164 179 165 192 173 159 139 140 136 134 135 118 99 97 71 345 353 360 350 334 349 352 355 341 338 358
229 210 241 297 166 225 188 215 237 212 204 167 171 130 117 142 170 159 166 194 173 163 172 184 172 161 188 154 129 121 107 123 157 143 143 87 78 78 36 19 1 360 346 349 344 350 346 334 340
190 221 239 298 203 189 237 205 212 215 180 182 176 165 153 142 14 224 186 184 168 152 149 144 151 167 178 172 178 186 172 178 123 128 109 97 65 60 40 15 2 359 350 349 347 340 332 319 325
37 303 228 233 223 219 194 252 192 189 197 174 179 180 169 165 165 233 221 167 119 137 149 137 140 153 171 175 180 153 141 123 122 124 128 90 71 55 37 7 7 4 353 352 341 330 323 311 303
313 272 169 153 222 206 158 240 185 185 210 175 174 182 190 153 194 166 181 137 112 146 136 128 136 157 146 157 137 167 163 148 138 118 117 88 71 62 33 13 3 356 350 347 337 325 311 311 301
225 196 174 164 199 164 146 213 309 156 159 171 176 180 184 174 167 163 167 156 152 135 126 126 118 128 140 147 149 142 126 114 101 98 78 59 33 29 25 2 357 356 348 339 331 319 308 305 298
198 272 191 306 202 130 186 217 164 108 107 340 236 203 164 163 150 148 142 137 141 105 100 111 122 125 137 138 128 114 109 97 85 73 65 51 26 21 8 353 349 346 336 328 318 305 304 302 294
152 229 29 114 34 246 171 246 201 181 132 106 172 177 168 158 142 132 121 112 106 113 124 125 130 130 128 126 123 111 100 91 79 70 63 50 40 17 1 349 339 337 330 327 321 309 312 309 301
262 107 227 195 223 253 195 259 227 188 152 129 160 159 152 147 139 137 137 124 118 124 123 122 128 124 127 125 112 98 88 82 88 79 65 47 34 13 352 344 337 332 328 325 320 312 311 305 301
164 193 184 283 291 300 290 212 102 152 100 135 147 147 145 142 138 135 127 123 123 123 121 122 122 122 118 111 109 104 94 83 78 71 58 34 12 6 350 340 335 330 326 325 317 312 308 305 304
309 301 258 242 186 287 313 254 111 184 132 135 132 131 129 129 131 130 129 130 129 124 123 120 121 122 118 113 106 94 84 78 68 62 42 20 8 355 344 337 332 330 328 325 322 317 315 310 306